Current Version              Previous Version:    01  02  03  04  05  06  07  08  09  10  11  12  13  14  15  16  17  18  19  20  21  22  23  24  25  26  27  28  29  30  
   31  32  33  34  35  36  37  38  39  40  41  42  43  44  45  46  47  48  49  50  51  52  53  54  55  56  57  58  59  60  

[Printable]
048
ASUS44 KFWD 301201
RWRTX
NORTH TEXAS HOURLY WEATHER ROUNDUP
NATIONAL WEATHER SERVICE FORT WORTH TX
700 AM CDT TUE SEP 30 2014

NOTE: "FAIR" INDICATES FEW OR NO CLOUDS BELOW 12,000 FEET WITH NO
SIGNIFICANT WEATHER AND/OR OBSTRUCTIONS TO VISIBILITY.

TXZ118-119-301300-
DALLAS/FORT WORTH METROPLEX

CITY           SKY/WX    TMP DP  RH WIND       PRES   REMARKS
DFW AIRPORT    MOCLDY    70  65  84 SE3       29.90R
6HR MIN TEMP:  70; 6HR MAX TEMP:  75;

DALLAS LOVE    MOCLDY    72  66  81 E6        29.90R
6HR MIN TEMP:  71; 6HR MAX TEMP:  76;

FTW MEACHAM    CLEAR     71  66  84 SE6       29.89S
6HR MIN TEMP:  70; 6HR MAX TEMP:  75;

DAL-EXECUTIVE  CLEAR     69  65  86 SE3       29.90R
6HR MIN TEMP:  68; 6HR MAX TEMP:  72;

FTW-ALLIANCE   MOCLDY    68  64  87 CALM      29.89S
6HR MIN TEMP:  63; 6HR MAX TEMP:  73;

FTW-NAS-JRB    MOCLDY    74  64  71 SE3       29.94R
6HR MIN TEMP:  73; 6HR MAX TEMP:  79;

FTW-SPINKS     CLEAR     63  61  94 CALM      29.91S
ARLINGTON      CLEAR     68  63  84 CALM      29.90S
6HR MIN TEMP:  66; 6HR MAX TEMP:  75;

GRAND PRAIRIE  CLEAR     72  64  78 MISG      29.91S
ADDISON        PTCLDY    72  64  78 E7        29.91S
LANCASTER      CLEAR     64  58  79 CALM      29.92R
6HR MIN TEMP:  64; 6HR MAX TEMP:  70;

$$

TXZ091>094-102>105-117-120-121-131>134-301300-
NORTH CENTRAL TEXAS

CITY           SKY/WX    TMP DP  RH WIND       PRES   REMARKS
SHRMAN/DENISON CLEAR     67  60  80 E6        29.92S
6HR MIN TEMP:  65; 6HR MAX TEMP:  74;

GAINESVILLE    CLEAR     65  60  85 CALM      29.93S
6HR MIN TEMP:  65; 6HR MAX TEMP:  70;

BRIDGEPORT     CLEAR     62  62 100 CALM      29.92R
6HR MIN TEMP:  62; 6HR MAX TEMP:  70;

DECATUR        CLEAR     68  65  89 SE5       29.92R
6HR MIN TEMP:  68; 6HR MAX TEMP:  70;

DENTON         CLEAR     65  61  87 SE3       29.90S
6HR MIN TEMP:  63; 6HR MAX TEMP:  74;

MCKINNEY       CLEAR     63  60  90 CALM      29.91R
6HR MIN TEMP:  63; 6HR MAX TEMP:  68;

GREENVILLE     MOCLDY    63  59  88 CALM      29.91S
ROCKWALL       CLEAR     67  63  87 CALM      29.90R
6HR MIN TEMP:  67; 6HR MAX TEMP:  70;

TERRELL        CLEAR     67  64  90 CALM      29.91R
6HR MIN TEMP:  67; 6HR MAX TEMP:  71;

WAXAHACHIE     PTCLDY    67  64  93 CALM      29.92S
6HR MIN TEMP:  66; 6HR MAX TEMP:  71;

CLEBURNE       CLEAR     66  66 100 CALM      29.92S
GRANBURY       CLEAR     68  64  86 SE3       29.91S
6HR MIN TEMP:  67; 6HR MAX TEMP:  73;

$$

TXZ083>090-098>101-113>116-127>130-139>142-154-155-301300-
WESTERN NORTH TEXAS

CITY           SKY/WX    TMP DP  RH WIND       PRES   REMARKS
WICHITA FALLS  CLEAR     63  60  90 S3        29.88R
6HR MIN TEMP:  63; 6HR MAX TEMP:  72;

WF-KICKAPOO    CLEAR     66  62  88 SE7       29.90S
6HR MIN TEMP:  65; 6HR MAX TEMP:  69;

VERNON         PTCLDY    64  58  79 SE6       29.88F
6HR MIN TEMP:  64; 6HR MAX TEMP:  82;

ABILENE        CLEAR     67  57  70 S5        29.91S
6HR MIN TEMP:  66; 6HR MAX TEMP:  69;

ABILENE-DYESS  PTCLDY    62  55  77 S7        29.89S
6HR MIN TEMP:  62; 6HR MAX TEMP:  67;

MINERAL WELLS  CLEAR     65  63  93 SE8       29.89S FOG
6HR MIN TEMP:  65; 6HR MAX TEMP:  71;

STEPHENVILLE   CLEAR     62  56  80 CALM      29.94S
6HR MIN TEMP:  62; 6HR MAX TEMP:  69;

COMANCHE       CLEAR     61  56  84 SE3       29.92S
6HR MIN TEMP:  61; 6HR MAX TEMP:  69;

COLEMAN        CLEAR     60  54  79 E5        29.92S
6HR MIN TEMP:  60; 6HR MAX TEMP:  70;

BRADY          CLEAR     64  57  77 CALM      29.92S
$$

TXZ143>147-156>162-174-175-301300-
CENTRAL TEXAS

CITY           SKY/WX    TMP DP  RH WIND       PRES   REMARKS
WACO           CLEAR     65  60  84 NE3       29.89S
6HR MIN TEMP:  65; 6HR MAX TEMP:  71;

WACO-TSTC      CLEAR     68  66  94 CALM      29.90
WACO-MCGREGOR  CLEAR     64  52  63 CALM      29.91S
6HR MIN TEMP:  64; 6HR MAX TEMP:  70;

CORSICANA      CLEAR     70  67  90 SE3       29.91S
6HR MIN TEMP:  70; 6HR MAX TEMP:  74;

MEXIA          MOCLDY    67  66  97 CALM      29.90R FOG
6HR MIN TEMP:  67; 6HR MAX TEMP:  72;

HEARNE         CLOUDY    70  68  92 CALM      29.90R
6HR MIN TEMP:  69; 6HR MAX TEMP:  73;

CAMERON        CLEAR     67  63  87 CALM      29.89S
6HR MIN TEMP:  66; 6HR MAX TEMP:  71;

TEMPLE         PTCLDY    64  55  72 CALM      29.89S
6HR MIN TEMP:  64; 6HR MAX TEMP:  68;

KILLEEN        PTCLDY    68  61  77 CALM      29.90S
KILLEEN-SKYLRK CLEAR     63  55  77 CALM      29.89R
6HR MIN TEMP:  63; 6HR MAX TEMP:  68;

FORT HOOD      CLEAR     68  61  78 CALM      29.90S
6HR MIN TEMP:  67; 6HR MAX TEMP:  74;

HAMILTON       CLEAR     64  57  80 SE3       29.92S
6HR MIN TEMP:  64; 6HR MAX TEMP:  69;

LAMPASAS       CLEAR     62  60  94 CALM      29.91R
6HR MIN TEMP:  62; 6HR MAX TEMP:  71;

$$

TXZ095>097-106>112-122>126-135>138-148>153-164>167-301300-
EAST TEXAS

CITY           SKY/WX    TMP DP  RH WIND       PRES   REMARKS
PARIS          CLOUDY    68  57  68 E9        29.92S
6HR MIN TEMP:  66; 6HR MAX TEMP:  70;

SULPHUR SPRNGS CLEAR     67  62  83 E3        29.94R
6HR MIN TEMP:  67; 6HR MAX TEMP:  68;

MOUNT PLEASANT MOCLDY    67  65  92 CALM      29.92F
6HR MIN TEMP:  66; 6HR MAX TEMP:  70;

MINEOLA        MOCLDY    66  64  94 CALM      29.92S
TYLER          CLEAR     70  65  84 CALM      29.91R
6HR MIN TEMP:  69; 6HR MAX TEMP:  74;

LONGVIEW       MOCLDY    70  66  87 CALM      29.91R
6HR MIN TEMP:  68; 6HR MAX TEMP:  71;

MARSHALL       CLOUDY    71  66  87 CALM      29.93S
6HR MIN TEMP:  68; 6HR MAX TEMP:  73;

ATHENS         MOCLDY    66  64  94 CALM      29.90S
PALESTINE      PTCLDY    70  69  95 CALM      29.91S
JACKSONVILLE   CLEAR     70  67  91 CALM      29.93R
HENDERSON      CLOUDY    67  66  97 CALM      29.92S
6HR MIN TEMP:  66; 6HR MAX TEMP:  70;

NACOGDOCHES    CLOUDY    70  66  88 CALM      29.91S
6HR MIN TEMP:  66; 6HR MAX TEMP:  70;

LUFKIN         PTCLDY    72  67  84 E3        29.90R
6HR MIN TEMP:  71; 6HR MAX TEMP:  75;

$$

SUPPLEMENTAL OBSERVATIONS (CENTRAL)

CITY           SKY/WX    TMP DP  RH WIND       PRES   REMARKS
$$

SUPPLEMENTAL OBSERVATIONS (WEST)

CITY           SKY/WX    TMP DP  RH WIND       PRES   REMARKS
$$

SUPPLEMENTAL OBSERVATIONS (EAST)

CITY           SKY/WX    TMP DP  RH WIND       PRES   REMARKS
$$

SUPPLEMENTAL OBSERVATIONS ARE A COLLECTION OF AUTOMATED INSTRUMENTS
THAT ARE MAINTAINED BY A VARIETY OF FEDERAL AND STATE AGENCIES.
CERTAIN ELEMENTS...SUCH AS HUMIDITY VALUES AND SUSTAINED WIND
SPEEDS...MAY BE APPROXIMATED.